Regional Weather Roundup
Issued by NWS

Home | Current Version | Previous Version | Text Only | Print | Product List | Glossary Off
Versions: 1 2 3 4 5 6 7 8 9 10 11 12 13 14 15 16 17 18 19 20 21 22 23 24 25 26 27 28 29 30 31 32 33 34 35 36 37 38 39 40 41 42 43 44 45 46 47 48 49 50

110
ASUS43 KIND 131109
RWRIN

WEATHER ROUNDUP FOR INDIANA
NATIONAL WEATHER SERVICE INDIANAPOLIS IN
600 AM EST SAT FEB 13 2016

NOTE: "FAIR" INDICATES FEW OR NO CLOUDS BELOW 12,000 FEET WITH NO
SIGNIFICANT WEATHER AND/OR OBSTRUCTIONS TO VISIBILITY.

* - STATION DOES NOT REPORT WEATHER SUCH AS PRECIPITATION OR FOG.

+ - STATION NOT QUALITY CONTROLLED BY THE NATIONAL WEATHER SERVICE.
    USE DATA WITH CAUTION...ESPECIALLY DEWPOINT AND RELATIVE
    HUMIDITY OBSERVATIONS.

INZ001>003-010>013-019-020-131200-
NORTHWEST INDIANA

CITY           SKY/WX    TMP DP  RH WIND       PRES   REMARKS
GARY /AIRPORT/ CLEAR      7 -13  40 NW17      30.55R WCI -12
KNOX *+        CLOUDY    10   3  72 NW14      30.48R WCI  -5
LA PORTE +     CLOUDY    12   5  73 NW10G16   30.47R HAZE    WCI  -1
MICHIGAN CITY+ FLURRIES  12   3  67 NW13G22   30.49R WCI  -3
MONTICELLO +   PTCLDY     6  -8  52 NW10      30.50R WCI  -9
RENSSELAER +   PTCLDY     7 -13  40 NW12      30.53R WCI  -9
VALPARAISO     LGT SNOW   8   0  69 NW14G22   30.50R WCI  -8

$$

LMZ046-743>745-131200-
SOUTHERN LAKE MICHIGAN

STATION/POSITION TIME  TEMP    WIND        PRES    WAVE
                       AIR SEA DIR/SP/G            HT
                 (UTC) (F)     (DEG/KT/KT) (MB)    (FT)
BURNS HARBOR     1007   11     320/ 21     1032.8R
MICHIGAN CITY    1000   12     290/ 20/ 27   N/A

$$

INZ004-005-014>016-021>024-131200-
NORTH CENTRAL INDIANA

CITY           SKY/WX    TMP DP  RH WIND       PRES   REMARKS
GOSHEN         MOCLDY     2  -2  83 SW6       30.44R WCI  -9
LOGANSPORT +   PTCLDY     9  -6  52 NW8       30.49R WCI  -4
PERU/GRISSOM   PTCLDY     7   0  71 NW13      30.45R WCI  -9
ROCHESTER +    LGT SNOW  12   5  73 NW8       30.47R WCI   1
SOUTH BEND     LGT SNOW   9   5  84 NW6       30.45R VSB 3/4 WCI  -1
WARSAW +       FLURRIES   5   1  85 CALM      30.45R

$$

INZ006>009-017-018-025>027-131200-
NORTHEAST INDIANA

CITY           SKY/WX    TMP DP  RH WIND       PRES   REMARKS
ANGOLA *+      PTCLDY     1  -6  71 W6        30.38R WCI -10
AUBURN +       CLEAR      3  -6  66 W5        30.43R WCI  -6
FORT WAYNE     PTCLDY     2  -7  66 W6        30.45R WCI  -9
HUNTINGTON +   PTCLDY     2 -10  58 CALM      30.45R

$$

INZ028-029-035-036-043>045-051>053-131200-
WEST CENTRAL INDIANA

CITY           SKY/WX    TMP DP  RH WIND       PRES   REMARKS
CRAWFORDSVL +  PTCLDY     5  -8  54 NW9       30.51R WCI -10
GREENCASTLE +  CLEAR      9  -9  43 NW6       30.51R WCI  -1
LAFAYETTE      PTCLDY     6  -6  57 NW15      30.53R WCI -12
TERRE HAUTE    CLEAR      9  -3  58 N10       30.56R WCI  -5

$$

INZ030>032-037>040-046>048-054>057-064-065-131200-
CENTRAL INDIANA

CITY           SKY/WX    TMP DP  RH WIND       PRES   REMARKS
FISHERS *+     CLEAR      7   1  78 NW9       30.48R WCI  -7
FRANKFORT +    CLEAR      7 -10  44 NW9       30.50R WCI  -6
GREENWOOD *+   CLEAR     10   1  67 NW12      30.48R WCI  -4
INDIANAPOLIS   PTCLDY     8  -3  61 NW12      30.48R WCI  -7
-EAGLE CREEK   PTCLDY     9  -3  58 NW13      30.49R WCI  -7
KOKOMO *+      CLEAR      7  -2  66 NW17      30.46R WCI -12
MARION +       LGT SNOW   8  -2  66 N6        30.47R WCI  -3
MT COMFORT *+  CLEAR      9   0  66 NW8       30.47R WCI  -4
SHELBYVILLE    PTCLDY    11   0  61 NW12      30.47R WCI  -3
ZIONSVILLE +   CLEAR      7  -2  66 NW9       30.48R WCI  -7

$$

INZ033-034-041-042-049-050-058-059-131200-
EAST CENTRAL INDIANA

CITY           SKY/WX    TMP DP  RH WIND       PRES   REMARKS
MUNCIE         LGT SNOW   8   1  73 N9        30.45R WCI  -5

$$

INZ060-061-067>069-081>083-085>088-131200-
SOUTHWEST INDIANA

CITY           SKY/WX    TMP DP  RH WIND       PRES   REMARKS
EVANSVILLE     CLEAR     17   4  56 N7        30.57R WCI   8
HUNTINGBURG *+ CLEAR     14   3  62 NW10      30.54R WCI   1
WASHINGTON +   CLEAR     13   3  65 NW9       30.55R WCI   1

$$

INZ062-063-066-070>080-084-089>092-131200-
SOUTH CENTRAL AND SOUTHEAST INDIANA

CITY           SKY/WX    TMP DP  RH WIND       PRES   REMARKS
BEDFORD +      CLEAR     12   0  57 NW5       30.51R WCI   4
BLOOMINGTON    CLEAR     10  -4  53 VRB5      30.50R WCI   2
MADISON *+     PTCLDY    14   1  57 NW6       30.48R WCI   5
NORTH VERNON + CLEAR     12   1  62 CALM      30.47R
SEYMOUR +      CLEAR     16   0  48 NW8       30.50R WCI   5

$$





USA.gov is the U.S. government's official web portal to all federal, state and local government web resources and services.